Date String (YYYY-MM-DD hh:mm:ss) UTC,Instrument flags,absolute air pressure of the measurement (hPa),sample flow rate (lpm),inlet stack bypass flow (lpm),air temperature of the measurement (°C),ambient temperature measured by the external sensor (°C),aerosol sample conditioner tube jacket temperature (°C),OPC LED temperature (°C),internal box temperature (°C),relative humidity of the measurement (%),span deviation,mass concentration of particles derived from Lorenz-Mie calculation of OPC scattering (μg/m³),mass concentration of particles derived from Lorenz-Mie calculation of OPC scattering (μg/m³),mass concentration of particles derived from Lorenz-Mie calculation of OPC scattering (μg/m³)
DateTimeUTC,F1_M11,P_M11,Q1_M11,Q2_M11,T1_M11,T2_M11,T3_M11,T4_M11,T5_M11,U1_M11,ZSPAN_M11,X2_M11,X0_M11,X1_M11
2023-10-06 17:00:00,SystemResetWarning,0843.1,5.00,000.00,028.0,026.5,000.0,036.4,029.7,17.8,0000.0,0003.25,0009.92,0002.41
2023-10-06 17:01:00,SystemResetWarning,0843.0,5.00,000.00,028.0,026.5,000.0,036.4,029.7,17.7,0000.0,0003.26,0010.25,0002.42
2023-10-06 17:02:00,SystemResetWarning,0843.0,4.99,000.00,028.0,026.5,000.0,036.4,029.6,17.7,0000.0,0003.24,0009.35,0002.44
2023-10-06 17:03:00,SystemResetWarning,0843.0,4.99,000.00,028.0,026.5,000.0,036.4,029.7,17.7,0000.0,0003.22,0009.14,0002.46
2023-10-06 17:04:00,SystemResetWarning,0843.0,5.00,000.00,028.0,026.5,000.0,036.4,029.7,17.7,0000.0,0003.24,0009.28,0002.49
2023-10-06 17:05:00,SystemResetWarning,0842.9,5.00,000.00,028.0,026.5,000.0,036.4,029.7,17.7,0000.0,0003.25,0009.81,0002.52
2023-10-06 17:06:00,SystemResetWarning,0842.9,5.01,000.00,028.0,026.5,000.0,036.4,029.7,17.7,0000.0,0003.27,0010.18,0002.55
2023-10-06 17:07:00,SystemResetWarning,0842.9,5.01,000.00,028.0,026.5,000.0,036.4,029.7,17.7,0000.0,0003.31,0009.98,0002.57
2023-10-06 17:08:00,SystemResetWarning,0842.9,5.01,000.00,028.0,026.5,000.0,036.4,029.7,17.7,0000.0,0003.32,0009.55,0002.58
2023-10-06 17:09:00,SystemResetWarning,0842.9,5.01,000.00,028.0,026.5,000.0,036.4,029.7,17.7,0000.0,0003.33,0009.44,0002.60
2023-10-06 17:10:00,SystemResetWarning,0842.9,5.00,000.00,028.0,026.5,000.0,036.4,029.7,17.7,0000.0,0003.35,0009.54,0002.61
2023-10-06 17:11:00,SystemResetWarning,0842.9,5.00,000.00,028.1,026.6,000.0,036.4,029.7,17.7,0000.0,0003.36,0009.50,0002.61
2023-10-06 17:12:00,SystemResetWarning,0842.9,4.99,000.00,028.1,026.6,000.0,036.4,029.7,17.8,0000.0,0003.38,0009.29,0002.63
2023-10-06 17:13:00,SystemResetWarning,0842.9,5.00,000.00,028.0,026.6,000.0,036.4,029.7,17.8,0000.0,0003.41,0009.48,0002.64
2023-10-06 17:14:00,SystemResetWarning,0843.0,5.00,000.00,028.0,026.6,000.0,036.4,029.7,17.8,0000.0,0003.43,0009.56,0002.63
2023-10-06 17:15:00,SystemResetWarning,0842.9,4.99,000.00,028.0,026.6,000.0,036.4,029.7,17.8,0000.0,0003.44,0009.46,0002.65
2023-10-06 17:16:00,SystemResetWarning,0842.9,5.01,000.00,028.1,026.6,000.0,036.4,029.7,17.8,0000.0,0003.44,0008.94,0002.64
2023-10-06 17:17:00,SystemResetWarning,0842.9,5.01,000.00,028.1,026.6,000.0,036.4,029.7,17.8,0000.0,0003.43,0009.06,0002.64
2023-10-06 17:18:00,SystemResetWarning,0842.9,5.01,000.00,028.1,026.6,000.0,036.4,029.7,17.8,0000.0,0003.39,0009.50,0002.64
2023-10-06 17:19:00,SystemResetWarning,0842.9,5.00,000.00,028.1,026.6,000.0,036.4,029.7,17.8,0000.0,0003.38,0009.25,0002.64
2023-10-06 17:20:00,SystemResetWarning,0843.0,4.99,000.00,028.1,026.6,000.0,036.4,029.7,17.8,0000.0,0003.36,0009.06,0002.65
2023-10-06 17:21:00,SystemResetWarning,0842.9,5.00,000.00,028.1,026.6,000.0,036.4,029.7,17.8,0000.0,0003.34,0008.43,0002.66
2023-10-06 17:22:00,SystemResetWarning,0843.0,5.00,000.00,028.1,026.6,000.0,036.5,029.7,17.8,0000.0,0003.34,0008.24,0002.69
2023-10-06 17:23:00,SystemResetWarning,0843.0,5.00,000.00,028.1,026.6,000.0,036.5,029.7,17.8,0000.0,0003.35,0008.37,0002.73
2023-10-06 17:24:00,SystemResetWarning,0843.0,5.00,000.00,028.1,026.6,000.0,036.5,029.8,17.8,0000.0,0003.36,0008.17,0002.75
2023-10-06 17:25:00,SystemResetWarning,0842.9,5.00,000.00,028.1,026.6,000.0,036.5,029.8,17.9,0000.0,0003.34,0008.07,0002.78
2023-10-06 17:26:00,SystemResetWarning,0842.9,5.01,000.00,028.1,026.6,000.0,036.5,029.8,17.9,0000.0,0003.33,0008.73,0002.79
2023-10-06 17:27:00,SystemResetWarning,0843.0,5.00,000.00,028.1,026.6,000.0,036.5,029.8,17.9,0000.0,0003.34,0009.06,0002.81
2023-10-06 17:28:00,SystemResetWarning,0842.9,5.00,000.00,028.1,026.6,000.0,036.5,029.8,17.7,0000.0,0003.31,0008.40,0002.83
2023-10-06 17:29:00,SystemResetWarning,0842.9,5.00,000.00,028.1,026.6,000.0,036.5,029.8,17.7,0000.0,0003.31,0007.99,0002.83
2023-10-06 17:30:00,SystemResetWarning,0842.9,5.00,000.00,028.1,026.6,000.0,036.5,029.8,17.7,0000.0,0003.30,0008.13,0002.83
2023-10-06 17:31:00,SystemResetWarning,0842.8,4.99,000.00,028.1,026.6,000.0,036.5,029.8,17.7,0000.0,0003.30,0008.65,0002.83
2023-10-06 17:32:00,SystemResetWarning,0842.8,5.00,000.00,028.1,026.6,000.0,036.5,029.8,17.8,0000.0,0003.31,0008.65,0002.84
2023-10-06 17:33:00,SystemResetWarning,0842.9,5.00,000.00,028.1,026.6,000.0,036.5,029.8,17.8,0000.0,0003.32,0008.60,0002.84
2023-10-06 17:34:00,SystemResetWarning,0842.8,4.99,000.00,028.1,026.6,000.0,036.5,029.8,17.9,0000.0,0003.30,0008.56,0002.81
2023-10-06 17:35:00,SystemResetWarning,0842.9,5.00,000.00,028.1,026.6,000.0,036.5,029.8,17.8,0000.0,0003.27,0008.98,0002.78
2023-10-06 17:36:00,SystemResetWarning,0842.9,5.00,000.00,028.1,026.6,000.0,036.5,029.8,17.7,0000.0,0003.29,0009.12,0002.76
2023-10-06 17:37:00,SystemResetWarning,0842.8,5.00,000.00,028.1,026.6,000.0,036.5,029.8,17.6,0000.0,0003.27,0008.81,0002.74
2023-10-06 17:38:00,SystemResetWarning,0842.8,4.99,000.00,028.1,026.6,000.0,036.5,029.8,17.7,0000.0,0003.26,0008.69,0002.72
2023-10-06 17:39:00,SystemResetWarning,0842.8,5.00,000.00,028.1,026.6,000.0,036.5,029.8,17.7,0000.0,0003.27,0008.58,0002.72
2023-10-06 17:40:00,SystemResetWarning,0842.8,5.01,000.00,028.1,026.6,000.0,036.5,029.8,17.7,0000.0,0003.28,0008.36,0002.71
2023-10-06 17:41:00,SystemResetWarning,0842.8,5.00,000.00,028.1,026.6,000.0,036.5,029.8,17.6,0000.0,0003.31,0008.17,0002.72
2023-10-06 17:42:00,SystemResetWarning,0842.8,5.00,000.00,028.1,026.6,000.0,036.5,029.7,17.5,0000.0,0003.34,0007.78,0002.72
2023-10-06 17:43:00,SystemResetWarning,0842.8,5.00,000.00,028.1,026.6,000.0,036.5,029.7,17.6,0000.0,0003.38,0007.94,0002.73
2023-10-06 17:44:00,SystemResetWarning,0842.8,4.99,000.00,028.1,026.6,000.0,036.5,029.7,17.6,0000.0,0003.41,0008.04,0002.74
2023-10-06 17:45:00,SystemResetWarning,0842.8,5.00,000.00,028.1,026.6,000.0,036.5,029.8,17.6,0000.0,0003.46,0008.16,0002.76
2023-10-06 17:46:00,SystemResetWarning,0842.8,5.00,000.00,028.1,026.6,000.0,036.5,029.8,17.6,0000.0,0003.48,0007.67,0002.77
2023-10-06 17:47:00,SystemResetWarning,0842.8,5.00,000.00,028.1,026.6,000.0,036.5,029.8,17.6,0000.0,0003.49,0008.07,0002.77
2023-10-06 17:48:00,SystemResetWarning,0842.8,5.00,000.00,028.1,026.6,000.0,036.5,029.7,17.6,0000.0,0003.48,0008.20,0002.77
2023-10-06 17:49:00,SystemResetWarning,0842.8,5.00,000.00,028.1,026.6,000.0,036.5,029.7,17.5,0000.0,0003.45,0007.79,0002.76
2023-10-06 17:50:00,SystemResetWarning,0842.8,5.00,000.00,028.1,026.6,000.0,036.5,029.7,17.5,0000.0,0003.46,0007.82,0002.75
2023-10-06 17:51:00,SystemResetWarning,0842.8,5.00,000.00,028.1,026.5,000.0,036.5,029.7,17.6,0000.0,0003.46,0007.99,0002.74
2023-10-06 17:52:00,SystemResetWarning,0842.8,5.01,000.00,028.1,026.5,000.0,036.5,029.7,17.6,0000.0,0003.45,0008.94,0002.74
2023-10-06 17:53:00,SystemResetWarning,0842.8,5.00,000.00,028.1,026.5,000.0,036.5,029.7,17.6,0000.0,0003.50,0009.50,0002.74
2023-10-06 17:54:00,SystemResetWarning,0842.8,4.99,000.00,028.1,026.5,000.0,036.5,029.7,17.6,0000.0,0003.50,0010.09,0002.74
2023-10-06 17:55:00,SystemResetWarning,0842.8,5.00,000.00,028.1,026.5,000.0,036.5,029.7,17.6,0000.0,0003.46,0010.05,0002.73
2023-10-06 17:56:00,SystemResetWarning,0842.8,5.00,000.00,028.0,026.5,000.0,036.5,029.7,17.6,0000.0,0003.40,0010.27,0002.71
2023-10-06 17:57:00,SystemResetWarning,0842.8,4.99,000.00,028.0,026.5,000.0,036.5,029.6,17.6,0000.0,0003.40,0010.28,0002.71
2023-10-06 17:58:00,SystemResetWarning,0842.8,5.01,000.00,028.0,026.5,000.0,036.5,029.6,17.7,0000.0,0003.40,0010.23,0002.71
2023-10-06 17:59:00,SystemResetWarning,0842.8,5.01,000.00,028.0,026.5,000.0,036.5,029.6,17.7,0000.0,0003.42,0009.69,0002.74
